THORAD DELTA 1 DEB, 8786

Orbit data source: Space-Track

THORAD DELTA 1 DEB, 8786 is space debris in SSO originally from a launch on Fri, 15 Nov 1974 UTC launched from the Air Force Western Test Range (AFWTR). Debris objects in space refer to the collection of defunct objects orbiting the Earth. Examples of debris include non-operational satellites, rocket bodies, and fragments generated from explosions, collisions, or faulty payload assembly.

Loading next visibility...
Identifier
8786, 1974-089DN
Orbit
SSO
Country
Flag of USUS
Related business
Manufacturer
Unknown
Mission
Spacecraft
Bus & Motor
Unknown
Mass
Unknown
Launch date (UTC)
1974-11-15 (51 years ago)
Launch vehicle
Unknown
Launch site
Air Force Western Test Range (AFWTR)
Object type
Payload
Rocket body
Debris
Shape & HBR
Unknown shape, 0.1 m
Radar Cross Section
Small (<0.1 m²)

Expand to show TLE details & history
Last TLE update: 7 hours ago

TLE from 7 hours ago
0 THORAD DELTA 1 DEB
1  8786U 74089DN  26062.19302128  .00000034  00000-0  55268-3 0  9995
2  8786 101.9318 163.6283 0054995 198.0557 192.1414 12.44420215327032
Epoch: 2026-03-03T04:37Z
TLE epoch observation values (Epoch: 2026-03-03T04:37:57.038Z)
Latitude
29.39778°
Longitude
-73.63926°
Altitude
1,533.588 km
Speed
7.083 km/s
True Right ascension
10h 27m 17s
True Declination
29° 15' 55"
Sunlit
Object was in full shadow at epoch
Visualization orbit readout
Latitude
Unknown
Longitude
Unknown
Altitude
Unknown
Speed
Unknown
Apparent Right ascension
Unknown
Apparent Declination
Unknown
Sunlit
N/A
Visualization observer readout
Local Sidereal Time
15:44:50
Azimuth
Unknown
Elevation
Unknown
Doppler factor
Unknown
Orbital elements
Apogee altitude
1,528.732 km
Perigee altitude
1,442.24 km
Semi-major axis
7,863.623 km
Eccentricity
0.0055
Inclination
101.9318°
RAAN
163.6283°
Arg. of periapsis
198.0557°
True anomaly
192.00974°
Mean anomaly
192.1414°
Eccentric anomaly
192.07548°
Mean motion
3.1125 °/min
Orbital period
115.66 mins
BSTAR
0.00055268
Loading maneuver chart data...
Computing Atmospheric mass density...

Documentation

Showing up to 5 results
|